SAVCSAZN

Guest
Details From SAVC - Comodoro Rivadavia
To SAZN - Presidente Peron
Flight Number -
Tags Decoded
Created
Modified
Stats Distance 412 nm / 763 km
Max Altitude 0 ft / 0 m
Waypoints 2
Social Downloads 1
Likes 0
Share VATSIM

Download

Looking for another format? Having issues loading an existing format? Contact us
Advertisement - Login to hide

Notes

Decoded

Route

SAVC SAZN

ID Type Via Altitude Latitude Longitude Leg Dist Tot Dist Heading (true) Name
O SAVC APT - 0 ft / 0 m -45.78778˚ -67.48344˚ - 0 nm - -
O SAZN APT - 0 ft / 0 m -38.94896˚ -68.17053˚ 411 nm 411 nm 356° / 356° -

Altitude Profile

Advertisement - Login to hide

Weather


0- 5 10 15 20 25 30 35+ Temperature / ° C

Clouds and Precipitation
Forecast for 2018-05-22 12:00 UTC. Updated 3 hours ago

Ground ~20,000 ft ~40,000 ft Winds

SAVC

Details ICAO SAVC (CRD)
Name COMODORO RIVADAVIA
Region Argentina
Timezone America/Argentina/Catamarca (UTC-3.0)
Stats Elevation 190 ft / 58 m (AMSL)
Location -45.785349° -67.465561°
Runways 1
Magnetic Variation 6.257° E

METAR

SAVC 221400Z 32008KT 250V360 CAVOK 11/04 Q1017

Decode

TAF

TAF SAVC 221100Z 2212/2312 27018KT CAVOK TX14/2218Z TN06/2311Z

Decode

Departure Runways

ID Width Length Bearing (true) Bearing (mag) Surface Threshold Offset Overrun Length
07 164 ft / 50 m 9,269 ft / 2,825 m 78.97° 72.71° Concrete 0 ft / 0 m 492 ft / 150 m
25 164 ft / 50 m 9,269 ft / 2,825 m 258.95° 252.69° Concrete 0 ft / 0 m 820 ft / 250 m

SAZN

Details ICAO SAZN (NQN)
Name PRESIDENTE PERON
Region Argentina
Timezone America/Argentina/Salta (UTC-3.0)
Stats Elevation 895 ft / 273 m (AMSL)
Location -38.949000° -68.155713°
Runways 1
Magnetic Variation 2.579° E

METAR

SAZN 221400Z 27005KT CAVOK 06/01 Q1023

Decode

TAF

TAF SAZN 221100Z 2212/2312 25005KT CAVOK TX16/2218Z TN00/2310Z

Decode

Destination Runways

ID Width Length Bearing (true) Bearing (mag) Surface Threshold Offset Overrun Length
08 147 ft / 45 m 8,411 ft / 2,564 m 90.23° 87.65° Asphalt 0 ft / 0 m 680 ft / 207 m
26 147 ft / 45 m 8,411 ft / 2,564 m 270.21° 267.63° Asphalt 0 ft / 0 m 675 ft / 206 m

Approach Navaids

Runway Type Ident Frequency Range Bearing (true) Bearing (mag) Slope Elevation
08 Localiser NE 110.30 MHz 18 nm / 33 km 92.65° 90.07° - 895 ft / 273 m (AMSL)
08 Glidescope NE 110.30 MHz 10 nm / 19 km 90.22° 87.64° 3.00° 896 ft / 273 m (AMSL)

Popular Alternatives